パンスターズ彗星

P/2015 X3 ( PanSTARRS )

English version
Home page
Updated on June 11, 2016

---------------------------------------------------------------------

・ プロフィール

発見日 2015年12月1日
発見光度 21.1等
発見者 Pan-STARRS 1 telescope (Haleakala)

・ 軌道要素

Epoch 2015 Aug. 6.0 TT = JDT 2457240.5
T 2015 Aug. 7.80510 TT                                  MPCW
q   2.8224273            (2000.0)            P               Q
n   0.08750112     Peri.  306.88909     +0.84242503     -0.35800108
a   5.0248946      Node    77.32904     +0.52202019     +0.72741475
e   0.4383111      Incl.   24.37688     -0.13347283     +0.58540842
P  11.3
From 31 observations 2015 Nov. 6-Dec. 10, mean residual 0".5.

・ 光度変化

        m1 = 14.0 + 5 logΔ + 10.0 log r

---------------------------------------------------------------------

軌道要素はM.P.E.C. 2015-Y73に掲載されたものです。
光度グラフはComet for Windowsで作成したものです。

---------------------------------------------------------------------

Copyright(C) Seiichi Yoshida (comet@aerith.net). All rights reserved.